Temperature
17 17 17 17 17 17 17 16 16 17 17 17 17 17 17 17 17 17 17 17 17 17 17 17 17 17 17 17 17 17 17 18 18 18 17 17 17 17 17 17 17 17 17
16 16 16 16 16 16 16 16 16 16 16 16 16 16 16 17 17 17 17 17 17 17 17 17 17 17 17 17 17 17 17 17 17 17 17 17 17 17 17 17 17 17 17
16 16 16 16 16 16 16 16 16 16 16 16 16 16 16 16 16 16 17 17 17 17 17 17 17 17 17 17 17 17 17 17 17 17 17 17 17 17 17 17 17 17 17
15 15 15 15 15 15 15 15 15 15 15 15 16 16 16 16 16 16 16 16 17 17 17 17 17 17 17 17 17 17 17 17 17 17 17 17 17 17 17 17 17 17 17
15 14 14 14 14 14 14 15 15 15 15 15 15 15 15 15 16 16 16 16 16 16 17 17 17 17 17 17 17 17 17 17 17 17 17 17 17 17 17 17 17 17 17
14 14 14 14 14 14 14 14 14 14 14 14 14 15 15 15 15 16 16 16 16 16 16 16 16 17 17 17 17 17 17 17 17 17 17 17 17 17 17 17 17 17 17
13 13 13 13 13 13 13 13 13 13 14 14 14 14 15 15 15 16 16 16 16 16 16 16 16 16 17 17 17 17 16 16 16 16 17 17 17 17 17 17 17 17 17
12 13 13 13 13 13 13 13 13 13 13 13 13 13 14 15 15 15 15 15 15 15 15 16 16 16 16 16 17 17 16 16 16 16 16 17 17 17 17 17 16 16 16
12 12 12 12 12 12 12 12 12 12 13 13 13 13 13 13 14 15 15 15 15 15 15 15 15 16 16 16 17 17 17 16 16 16 16 16 16 16 17 17 17 16 16
11 11 11 11 11 12 12 12 12 12 12 12 12 12 12 12 13 13 14 14 15 15 15 15 15 16 16 16 16 17 17 17 16 16 16 16 16 16 16 17 17 16 16
11 11 11 11 11 11 11 11 11 11 12 12 12 12 12 12 12 12 13 14 14 15 15 15 15 15 16 16 16 16 17 17 16 16 16 16 16 16 16 17 17 17 16
10 10 10 10 10 10 10 11 11 11 11 11 11 11 11 11 12 12 12 13 14 15 15 15 15 15 16 16 16 16 16 17 17 16 16 16 16 16 16 17 17 17 17
10 10 10 10 10 10 10 10 10 10 10 11 11 11 11 11 11 11 11 12 12 14 15 15 15 15 15 16 16 16 16 16 17 16 16 16 16 16 16 16 16 17 17
10 10 9 9 9 9 9 9 9 9 10 10 10 10 11 11 11 11 11 11 12 13 14 15 15 15 15 15 16 16 16 16 16 16 16 16 16 16 16 16 16 16 16
9 9 9 9 9 9 9 8 9 9 9 9 9 10 10 10 10 10 11 11 11 11 12 14 14 15 15 15 15 15 15 16 16 16 16 16 16 16 16 16 16 16 16
9 9 9 9 9 8 8 8 8 8 8 8 9 9 9 9 10 10 10 10 11 11 11 12 13 14 15 15 15 15 15 15 16 16 16 16 16 16 16 16 16 16 16
9 9 9 9 9 8 8 8 8 8 8 8 8 8 8 9 9 9 10 10 10 10 11 12 13 14 14 15 15 15 15 15 15 15 16 16 16 16 16 16 16 16 16
9 9 8 8 8 8 8 8 8 8 8 8 8 8 8 8 8 9 9 9 10 10 10 11 12 13 14 14 15 15 15 15 15 15 15 16 16 16 16 16 16 16 16
9 9 8 8 8 8 8 8 8 8 8 8 8 8 8 8 8 8 9 9 9 10 10 10 11 12 13 13 14 14 14 15 15 15 15 15 15 16 16 16 16 16 16
8 8 8 8 8 8 8 8 8 8 8 8 8 8 8 8 8 8 8 8 9 9 10 10 10 11 12 12 13 14 14 14 14 15 15 15 15 15 15 15 15 15 16
8 8 8 8 8 8 8 8 8 8 8 8 8 8 8 7 7 7 8 8 8 9 9 10 10 10 11 12 12 13 13 13 14 14 14 14 15 15 15 15 15 15 15
8 8 8 8 8 8 8 8 7 7 8 8 8 8 8 7 7 7 7 7 8 8 9 9 10 10 11 11 12 12 13 13 13 13 13 13 14 14 14 15 15 15 15
8 8 8 8 8 8 8 8 7 7 7 7 7 7 7 7 7 7 7 7 7 8 8 9 9 10 10 11 11 12 12 12 13 13 12 12 12 13 13 14 14 15 15
8 8 8 8 8 8 8 8 7 7 7 7 7 7 7 7 7 7 7 7 7 7 8 8 9 9 10 10 11 11 12 12 12 12 12 12 12 12 12 12 13 14 14
8 8 8 8 8 8 8 7 7 7 7 7 7 7 7 7 7 7 6 6 7 7 8 8 8 9 9 10 10 10 11 11 12 12 12 12 11 11 11 11 12 12 13
8 8 8 8 8 8 8 7 7 7 7 7 7 7 7 6 7 6 6 6 6 7 7 8 8 9 9 9 10 10 10 11 11 11 11 11 11 11 11 11 11 11 12
Wind_Speed
2 2 2 3 3 4 4 4 5 6 6 8 11 11 11 12 14 14 14 18 20 21 22 24 26 27 27 26 26 25 25 24 23 22 22 21 21 20 20 19 19 18 18
2 1 2 2 3 4 4 4 5 5 5 5 7 9 10 12 14 16 16 17 21 22 23 24 26 28 28 28 28 27 27 26 25 25 24 23 22 22 21 20 20 19 19
3 2 2 2 3 4 4 4 4 4 5 5 7 8 8 10 12 14 17 17 18 22 24 24 26 28 30 30 29 29 28 28 27 26 26 25 24 24 23 22 21 20 20
4 3 2 3 4 4 3 3 3 3 4 5 5 6 7 8 11 13 16 17 17 18 20 24 25 27 30 30 30 30 30 29 29 28 27 27 26 25 24 24 23 22 21
5 2 2 3 4 3 3 3 2 2 4 5 6 6 7 8 10 12 12 15 18 18 18 20 24 25 28 30 31 30 30 30 30 30 29 28 27 27 26 25 24 23 23
6 4 2 3 3 2 3 3 3 3 3 5 6 7 7 8 9 10 12 11 14 18 18 19 18 20 25 27 29 30 30 31 31 31 30 29 29 28 28 27 26 25 24
7 5 3 3 3 2 3 3 3 3 3 2 3 5 5 7 9 9 9 9 11 14 16 18 17 17 17 23 27 29 30 31 32 32 31 31 30 29 29 29 28 28 27
7 5 4 4 3 2 3 3 2 2 2 2 2 3 4 4 3 6 6 8 10 8 11 16 16 17 17 17 20 26 30 32 32 32 32 32 31 30 30 30 29 29 28
7 6 5 3 3 2 2 3 2 2 2 2 2 2 2 3 4 3 4 6 6 7 9 8 13 16 18 17 18 22 28 30 32 32 32 32 32 31 31 30 30 30 29
6 6 5 4 3 2 2 3 1 1 1 2 2 2 3 3 4 4 3 3 5 7 8 9 10 13 16 16 18 21 25 28 30 32 33 32 32 32 31 31 31 30 30
5 6 5 3 3 2 3 3 2 1 1 2 2 2 2 3 3 3 5 4 3 4 7 8 8 8 14 16 17 21 25 27 29 31 32 32 32 32 31 31 31 30 30
4 5 5 3 3 3 3 3 3 3 2 3 2 2 2 2 2 2 4 5 5 4 5 6 8 9 10 14 19 21 24 26 28 29 30 31 32 32 32 32 31 31 30
4 6 4 4 4 4 4 3 3 3 3 3 3 3 3 4 3 3 4 4 5 4 4 4 6 7 8 11 14 20 22 25 27 27 28 29 30 31 31 32 32 31 30
6 7 6 6 6 5 5 4 3 4 3 4 5 4 4 5 4 3 3 3 5 4 3 4 2 4 5 7 11 16 17 23 25 26 26 26 27 28 29 30 30 30 29
6 7 6 7 7 6 6 5 4 5 4 5 5 5 4 4 4 5 4 4 3 4 4 3 2 2 3 4 8 10 13 17 21 23 24 24 25 26 27 28 28 28 27
7 7 8 8 7 7 6 5 5 6 6 6 5 5 5 5 5 5 5 5 5 5 5 3 3 4 5 4 5 7 9 12 16 20 21 22 23 24 25 26 26 27 26
7 8 8 8 8 8 7 6 7 7 7 7 6 6 7 6 5 5 5 5 5 5 7 6 3 4 5 4 2 2 3 5 7 14 17 18 20 21 22 23 23 24 24
8 8 8 9 9 9 8 8 9 9 8 9 9 8 9 7 7 6 5 6 6 6 6 8 5 4 4 3 1 2 2 2 3 8 12 14 16 18 19 20 20 21 21
8 9 8 9 10 10 10 9 10 10 10 10 10 10 10 9 9 7 7 7 6 7 6 6 5 3 3 2 0 2 4 3 3 6 8 9 11 13 15 16 17 18 19
9 9 9 10 10 10 11 11 11 11 11 11 10 10 10 10 10 10 8 8 7 7 7 6 6 4 4 3 2 2 3 2 3 4 6 7 9 10 11 13 15 16 17
10 9 10 10 10 10 10 11 11 11 11 11 11 11 11 12 14 11 9 8 8 7 7 6 6 4 4 3 4 3 4 4 3 3 4 4 5 5 5 8 11 13 15
10 9 10 11 11 10 12 15 14 12 12 13 13 12 11 13 15 16 17 15 13 10 9 8 7 6 6 5 4 4 5 5 4 4 4 3 3 4 3 4 9 13 15
9 10 11 11 11 13 15 17 17 13 12 13 13 12 11 11 12 11 13 16 16 17 15 11 10 9 7 6 6 7 7 6 4 7 5 3 3 3 3 5 9 13 15
9 10 11 11 11 13 15 15 16 12 12 13 13 13 13 13 12 12 12 12 12 12 14 13 11 11 9 7 6 6 6 6 5 4 4 4 3 3 3 6 8 12 15
10 10 10 11 12 13 14 14 13 9 9 12 12 12 13 13 14 15 13 13 13 11 12 14 14 13 12 11 7 5 7 8 5 4 2 4 4 3 3 3 7 12 15
10 10 11 11 11 12 14 14 12 7 9 10 10 10 14 15 15 15 13 13 14 12 11 10 11 12 11 11 11 9 8 9 6 5 4 5 5 5 3 2 3 6 10
Wind_Direction
286 293 297 301 296 290 283 279 271 263 252 240 234 232 231 229 232 231 233 235 232 230 228 227 222 216 212 210 208 205 203 202 199 197 196 194 191 190 188 187 186 185 185
321 313 309 312 308 302 292 282 276 269 260 250 241 234 236 235 235 234 235 237 237 234 230 229 227 222 217 214 212 209 206 205 203 201 199 198 196 194 194 193 192 191 190
341 330 321 316 312 311 303 294 287 273 264 254 248 244 239 240 238 237 236 234 236 236 234 232 230 225 220 218 216 213 210 208 206 204 202 201 199 198 197 197 196 195 195
353 342 324 311 318 324 319 304 290 287 274 263 258 253 247 243 244 241 239 234 231 233 234 234 231 228 223 221 220 217 213 211 209 207 205 204 203 202 201 200 199 198 199
6 355 316 310 323 326 321 316 304 277 280 277 269 260 251 246 246 244 240 235 230 228 228 233 233 229 227 225 224 221 218 214 212 209 208 207 207 205 204 203 202 201 201
7 2 334 326 329 322 320 317 301 287 270 277 281 272 259 250 245 243 242 238 230 227 226 228 230 231 229 228 226 224 223 220 215 213 211 209 209 208 206 206 205 203 203
1 360 344 329 326 308 298 305 296 299 291 286 287 289 276 255 246 244 239 236 233 229 225 224 224 226 228 228 228 226 227 225 221 217 214 211 210 209 208 207 207 206 205
354 356 346 328 318 305 310 315 298 304 298 310 286 294 308 312 276 248 240 236 235 230 226 224 221 221 223 225 226 225 226 227 225 221 218 213 211 210 209 208 208 208 207
341 346 339 328 317 291 287 294 290 275 290 304 283 286 302 303 316 291 249 245 242 235 233 224 222 222 221 222 223 224 225 224 225 224 221 217 213 211 209 209 209 209 209
326 333 333 330 321 305 290 290 303 267 258 293 310 288 263 274 290 311 309 266 249 242 237 233 228 225 224 223 223 222 224 224 225 226 224 220 216 212 210 210 210 210 211
315 320 322 329 331 316 300 292 297 277 242 243 265 296 298 287 261 276 297 316 309 262 245 236 230 225 223 223 226 225 222 223 224 224 223 220 217 213 211 211 212 213 213
302 306 310 311 312 308 304 296 286 276 251 246 250 254 264 281 295 284 287 304 302 290 271 244 232 226 223 222 227 226 222 221 221 220 220 220 217 214 212 213 214 214 214
290 294 301 292 291 289 289 284 284 287 268 253 250 251 251 252 259 264 281 294 295 293 280 254 231 225 224 220 224 227 226 222 218 217 217 216 213 211 210 211 212 213 214
272 280 283 279 278 281 285 282 278 280 274 268 267 256 254 257 252 249 258 289 302 295 277 278 266 235 232 225 225 226 231 223 215 213 212 211 209 208 207 207 208 210 212
273 275 277 279 279 277 276 276 270 275 276 270 269 265 256 257 252 251 246 246 269 294 295 289 302 333 293 251 234 226 230 223 214 211 210 208 207 206 205 204 204 207 208
274 281 282 280 279 276 270 263 264 266 265 266 262 263 262 261 258 252 247 244 241 255 274 293 306 319 314 287 244 224 226 224 216 210 207 205 204 203 201 201 202 204 206
279 279 280 282 281 279 273 262 259 260 258 261 263 260 263 262 259 255 246 241 241 240 262 280 281 304 305 293 270 208 197 198 208 206 203 200 198 197 197 197 199 201 203
279 279 281 281 280 279 274 269 270 268 257 258 260 258 261 263 256 254 246 241 239 236 246 272 285 295 298 298 251 143 118 118 139 177 186 189 190 189 189 191 194 197 199
281 283 280 279 279 280 278 273 269 269 263 258 255 253 255 255 256 253 248 245 243 244 238 253 272 279 287 280 199 116 107 98 97 116 137 159 173 178 182 186 190 193 195
280 281 280 278 277 278 277 275 272 270 268 264 256 251 250 246 247 249 247 244 243 244 241 244 257 265 269 267 210 166 141 126 115 102 105 114 137 153 168 177 183 188 191
281 279 282 281 278 276 272 269 268 270 269 269 264 255 249 246 244 242 239 237 236 237 237 236 244 251 252 241 217 179 165 146 120 128 122 105 113 116 134 159 171 177 181
282 281 279 279 279 275 270 270 271 271 271 270 270 266 258 257 254 251 247 240 228 228 231 231 232 233 240 239 228 195 166 164 160 153 132 103 91 97 85 115 153 163 167
282 283 281 277 275 273 270 272 273 272 268 267 266 266 265 259 250 245 247 248 243 233 225 226 230 227 229 228 221 207 191 174 159 157 136 113 87 87 57 79 132 145 150
282 282 282 280 278 276 272 271 274 273 268 265 262 259 258 258 253 244 244 246 245 242 234 232 231 229 227 221 221 224 193 149 117 133 128 124 112 90 63 61 97 126 136
285 283 281 280 278 280 276 273 273 271 266 266 263 259 254 255 248 238 241 246 247 247 241 232 226 226 222 216 208 204 182 170 161 151 124 124 127 102 73 53 64 100 119
284 287 284 279 275 277 277 275 274 265 265 268 267 262 254 251 247 236 238 240 243 242 238 232 224 225 223 219 209 210 198 187 167 160 161 134 140 137 114 66 52 80 98
Height
1538 1538 1537 1537 1536 1536 1535 1535 1535 1536 1536 1536 1537 1538 1539 1541 1543 1544 1546 1549 1551 1553 1555 1558 1560 1562 1565 1567 1570 1572 1575 1577 1579 1582 1584 1586 1588 1590 1593 1595 1597 1599 1601
1535 1535 1534 1533 1532 1532 1531 1531 1530 1530 1530 1531 1531 1532 1533 1534 1536 1538 1540 1542 1545 1547 1550 1552 1555 1557 1560 1563 1565 1568 1571 1574 1576 1579 1581 1583 1586 1588 1591 1593 1595 1597 1599
1532 1532 1531 1530 1529 1528 1527 1526 1526 1525 1525 1525 1525 1526 1526 1528 1529 1531 1533 1535 1537 1540 1543 1546 1548 1551 1555 1558 1561 1564 1567 1570 1573 1575 1578 1581 1583 1586 1588 1591 1593 1595 1597
1529 1529 1528 1527 1526 1525 1524 1523 1522 1521 1520 1520 1519 1519 1520 1520 1522 1523 1525 1527 1529 1532 1535 1538 1541 1545 1548 1552 1555 1559 1562 1565 1568 1571 1574 1577 1580 1582 1585 1588 1590 1593 1595
1526 1526 1525 1524 1523 1522 1521 1520 1518 1517 1516 1515 1514 1514 1514 1514 1515 1516 1516 1518 1520 1523 1527 1531 1534 1538 1541 1545 1549 1552 1556 1560 1563 1566 1569 1572 1575 1578 1581 1584 1587 1590 1592
1523 1523 1522 1521 1520 1519 1518 1517 1515 1514 1513 1511 1509 1509 1508 1508 1508 1508 1509 1510 1511 1514 1518 1522 1526 1530 1534 1538 1542 1545 1549 1553 1557 1561 1564 1567 1571 1574 1577 1580 1583 1586 1589
1520 1519 1518 1518 1517 1516 1515 1514 1512 1511 1510 1508 1506 1504 1503 1503 1502 1502 1502 1502 1504 1506 1509 1513 1518 1522 1526 1530 1535 1538 1542 1546 1550 1554 1558 1562 1565 1569 1572 1576 1579 1582 1585
1517 1516 1515 1514 1514 1513 1512 1511 1510 1509 1507 1506 1504 1502 1500 1499 1497 1497 1497 1497 1497 1500 1502 1506 1509 1514 1519 1523 1527 1531 1535 1539 1543 1547 1551 1555 1559 1563 1567 1570 1574 1577 1580
1514 1513 1512 1511 1510 1509 1509 1508 1507 1506 1505 1504 1503 1502 1500 1497 1495 1494 1493 1493 1493 1495 1497 1499 1502 1506 1511 1515 1519 1523 1527 1531 1536 1539 1544 1548 1552 1557 1561 1564 1568 1572 1575
1512 1510 1508 1507 1506 1505 1505 1504 1504 1503 1502 1501 1501 1500 1499 1497 1496 1492 1492 1491 1491 1491 1492 1494 1496 1499 1503 1507 1510 1515 1519 1523 1527 1532 1536 1541 1545 1550 1554 1558 1562 1566 1570
1509 1507 1505 1504 1503 1502 1501 1500 1500 1500 1499 1498 1498 1497 1496 1495 1494 1492 1489 1488 1488 1488 1488 1489 1491 1493 1496 1499 1503 1506 1511 1515 1519 1524 1528 1533 1537 1542 1547 1551 1555 1559 1563
1505 1503 1502 1500 1499 1498 1497 1496 1496 1496 1495 1495 1494 1494 1493 1493 1491 1490 1488 1486 1484 1484 1485 1485 1486 1487 1490 1493 1496 1499 1503 1507 1511 1516 1520 1525 1530 1535 1539 1544 1548 1553 1557
1502 1500 1498 1496 1495 1494 1493 1492 1491 1491 1491 1490 1490 1490 1490 1489 1489 1488 1486 1484 1482 1481 1481 1481 1482 1483 1485 1487 1489 1492 1495 1499 1503 1508 1512 1517 1522 1527 1532 1537 1542 1546 1551
1498 1496 1494 1493 1491 1490 1489 1488 1487 1486 1486 1485 1485 1485 1485 1485 1485 1484 1484 1482 1480 1478 1477 1478 1478 1479 1480 1482 1483 1486 1488 1492 1496 1500 1505 1510 1515 1520 1525 1530 1535 1540 1544
1494 1492 1490 1489 1487 1486 1484 1483 1482 1481 1481 1480 1480 1480 1480 1480 1480 1480 1480 1480 1479 1476 1474 1474 1476 1476 1476 1478 1479 1481 1483 1486 1490 1494 1498 1503 1508 1513 1518 1523 1528 1533 1538
1490 1488 1486 1484 1483 1481 1480 1478 1477 1476 1475 1475 1474 1474 1474 1474 1475 1475 1475 1475 1475 1475 1472 1471 1472 1473 1473 1474 1475 1477 1478 1481 1484 1488 1493 1498 1502 1507 1512 1517 1522 1527 1532
1486 1484 1481 1479 1477 1476 1475 1473 1472 1471 1470 1469 1469 1468 1468 1468 1468 1469 1470 1470 1471 1471 1469 1467 1469 1469 1470 1471 1472 1473 1475 1477 1480 1484 1488 1493 1497 1502 1507 1512 1517 1521 1526
1481 1479 1476 1474 1472 1470 1469 1468 1466 1465 1464 1463 1463 1462 1462 1462 1462 1463 1463 1464 1465 1466 1465 1464 1464 1465 1466 1467 1469 1470 1471 1474 1476 1480 1484 1489 1493 1498 1502 1507 1511 1516 1520
1476 1474 1471 1468 1466 1465 1463 1462 1460 1459 1458 1457 1456 1456 1456 1456 1455 1456 1457 1458 1459 1460 1461 1460 1460 1461 1462 1463 1465 1466 1468 1470 1473 1477 1481 1485 1489 1493 1497 1502 1506 1510 1515
1470 1468 1465 1463 1461 1459 1457 1456 1454 1453 1451 1450 1450 1449 1449 1449 1449 1449 1450 1451 1452 1454 1455 1455 1456 1457 1458 1459 1461 1463 1465 1468 1470 1474 1477 1481 1484 1488 1492 1496 1501 1505 1509
1465 1462 1459 1457 1455 1453 1451 1450 1448 1446 1445 1443 1442 1442 1441 1441 1442 1442 1443 1444 1446 1447 1449 1450 1451 1452 1453 1456 1458 1460 1462 1465 1467 1470 1474 1477 1480 1484 1487 1491 1495 1500 1504
1459 1456 1453 1451 1449 1447 1445 1444 1442 1439 1438 1436 1435 1434 1434 1434 1434 1435 1436 1437 1439 1440 1442 1444 1445 1447 1449 1451 1453 1456 1459 1461 1464 1468 1471 1474 1477 1480 1483 1487 1491 1495 1500
1453 1450 1448 1445 1443 1441 1439 1437 1435 1433 1431 1429 1428 1427 1426 1426 1427 1427 1428 1430 1431 1433 1436 1438 1439 1441 1444 1446 1449 1451 1454 1457 1460 1463 1468 1470 1474 1477 1480 1483 1487 1491 1496
1447 1445 1442 1440 1437 1435 1433 1431 1429 1426 1424 1422 1421 1420 1419 1418 1419 1420 1420 1421 1423 1425 1428 1430 1433 1436 1439 1441 1443 1446 1449 1452 1456 1460 1464 1468 1471 1475 1478 1481 1484 1488 1492
1442 1439 1437 1434 1431 1429 1427 1425 1422 1419 1417 1415 1414 1413 1412 1411 1411 1412 1412 1413 1414 1417 1420 1423 1426 1429 1433 1436 1438 1441 1443 1447 1450 1455 1460 1464 1468 1472 1476 1479 1482 1486 1490
1437 1434 1431 1429 1426 1423 1421 1418 1416 1413 1410 1408 1407 1405 1404 1404 1403 1404 1404 1405 1406 1409 1413 1416 1419 1422 1426 1429 1432 1435 1438 1441 1445 1450 1454 1460 1464 1469 1473 1477 1480 1484 1488